Location: Newark
(13.9667°S, 33.8167°E)
Time: 04:38:02
(UTC+00:00)

LightSail 2 - Visible Passes

Search period start: 19 September 2019 00:00
Search period end: 29 September 2019 00:00
Orbit: 701 x 731 km, 24.0° (Epoch: 18 September)

Date Brightness Start Highest point End Pass type
(mag) Time Alt. Az. Time Alt. Az. Time Alt. Az.
19 Sep 6.6 17:22:36 10° SW 17:27:00 26° S 17:27:12 26° S visible
20 Sep 6.7 16:25:10 10° WSW 16:29:35 27° S 16:33:34 12° SE visible
20 Sep 7.6 18:11:10 10° SW 18:12:36 17° SW 18:12:36 17° SW visible
21 Sep 6.4 17:13:55 10° SW 17:18:28 29° S 17:18:58 28° SSE visible
22 Sep 6.6 16:16:35 10° SW 16:21:03 27° S 16:25:20 11° ESE visible
22 Sep 7.2 18:02:13 10° WSW 18:04:21 23° SW 18:04:21 23° SW visible
23 Sep 6.0 17:05:01 10° SW 17:09:51 36° SSE 17:10:44 33° SSE visible
24 Sep 6.4 16:07:47 10° SW 16:12:28 31° S 16:17:07 10° ESE visible
24 Sep 6.7 17:53:13 10° WSW 17:56:09 33° SW 17:56:09 33° SW visible
25 Sep 5.6 16:56:02 10° WSW 17:01:09 50° SSE 17:02:34 39° ESE visible
26 Sep 6.0 15:58:51 10° SW 16:03:48 40° SSE 16:08:45 10° E visible
26 Sep 6.1 17:44:19 10° WSW 17:48:02 46° W 17:48:02 46° W visible
27 Sep 5.1 16:47:03 10° WSW 16:52:20 77° SSE 16:54:31 36° E visible
27 Sep 8.1 18:33:11 10° W 18:33:33 12° W 18:33:33 12° W visible
28 Sep 6.0 17:35:37 10° W 17:40:04 44° NW 17:40:04 44° NW visible
